• în România
  • Lista ţărilor
  • Pe 7 zile
  • Temperatura apei
  • Hartă satelitară
  • Meteo pe hartă
  • Widget-uri
  • user-avatar
    Intrare

    Meteo pe oră la Elbasan

    Astăzi, 27 Iulie, Joi

    Timp Temperatura Precipitaţii Vânt Presiune Umiditate
    00:00 +19°C° 0 mm 1 m/s 729 mmHg 85%
    01:00 +19°C° 0 mm 1 m/s 729 mmHg 87%
    02:00 +18°C° 0 mm 1 m/s 729 mmHg 87%
    03:00 +18°C° 0 mm 1 m/s 729 mmHg 88%
    04:00 +18°C° 0 mm 1 m/s 729 mmHg 88%
    05:00 +19°C° 0 mm 1 m/s 729 mmHg 82%
    06:00 +21°C° 0 mm 1 m/s 729 mmHg 75%
    07:00 +23°C° 0 mm 1 m/s 729 mmHg 68%
    08:00 +24°C° 0,1 mm 2 m/s 729 mmHg 60%
    09:00 +26°C° 0,1 mm 3 m/s 729 mmHg 53%
    10:00 +27°C° 0,1 mm 3 m/s 730 mmHg 45%
    11:00 +28°C° 0,1 mm 4 m/s 730 mmHg 44%
    12:00 +28°C° 0,1 mm 5 m/s 730 mmHg 42%
    13:00 +29°C° 0 mm 5 m/s 729 mmHg 41%
    14:00 +28°C° 0,2 mm 5 m/s 730 mmHg 43%
    15:00 +28°C° 0,2 mm 5 m/s 730 mmHg 44%
    16:00 +28°C° 0,2 mm 5 m/s 730 mmHg 45%
    17:00 +26°C° 0,1 mm 4 m/s 730 mmHg 52%
    18:00 +24°C° 0,1 mm 3 m/s 730 mmHg 60%
    19:00 +21°C° 0,1 mm 2 m/s 731 mmHg 67%
    20:00 +20°C° 0 mm 2 m/s 731 mmHg 71%
    21:00 +20°C° 0 mm 1 m/s 731 mmHg 75%
    22:00 +19°C° 0 mm 1 m/s 731 mmHg 78%
    23:00 +19°C° 0 mm 1 m/s 732 mmHg 78%

    Mâine, 28 Iulie, Vineri

    Timp Temperatura Precipitaţii Vânt Presiune Umiditate
    00:00 +19°C° 0 mm 1 m/s 732 mmHg 78%
    01:00 +19°C° 0 mm 1 m/s 732 mmHg 78%
    02:00 +18°C° 0 mm 1 m/s 732 mmHg 78%
    03:00 +18°C° 0 mm 1 m/s 732 mmHg 78%
    04:00 +18°C° 0 mm 1 m/s 732 mmHg 78%
    05:00 +20°C° 0 mm 1 m/s 733 mmHg 73%
    06:00 +22°C° 0 mm 1 m/s 733 mmHg 68%
    07:00 +24°C° 0 mm 1 m/s 733 mmHg 63%
    08:00 +25°C° 0 mm 2 m/s 733 mmHg 55%
    09:00 +27°C° 0 mm 2 m/s 734 mmHg 47%
    10:00 +28°C° 0 mm 3 m/s 734 mmHg 39%
    11:00 +29°C° 0 mm 3 m/s 734 mmHg 37%
    12:00 +30°C° 0 mm 4 m/s 734 mmHg 34%
    13:00 +32°C° 0 mm 4 m/s 734 mmHg 32%
    14:00 +32°C° 0 mm 4 m/s 734 mmHg 33%
    15:00 +32°C° 0 mm 4 m/s 734 mmHg 34%
    16:00 +30°C° 0 mm 4 m/s 734 mmHg 35%
    17:00 +28°C° 0 mm 3 m/s 734 mmHg 42%
    18:00 +26°C° 0 mm 2 m/s 734 mmHg 49%
    19:00 +23°C° 0 mm 1 m/s 734 mmHg 56%
    20:00 +23°C° 0 mm 1 m/s 735 mmHg 58%
    21:00 +22°C° 0 mm 1 m/s 735 mmHg 60%
    22:00 +21°C° 0 mm 1 m/s 736 mmHg 62%
    23:00 +21°C° 0 mm 1 m/s 736 mmHg 62%

    Poimâine, 29 Iulie, Sâmbătă

    Timp Temperatura Precipitaţii Vânt Presiune Umiditate
    00:00 +21°C° 0 mm 1 m/s 736 mmHg 61%
    01:00 +21°C° 0 mm 1 m/s 736 mmHg 61%
    02:00 +21°C° 0 mm 1 m/s 736 mmHg 62%
    03:00 +21°C° 0 mm 1 m/s 736 mmHg 62%
    04:00 +21°C° 0 mm 1 m/s 736 mmHg 63%
    05:00 +23°C° 0 mm 1 m/s 737 mmHg 58%
    06:00 +25°C° 0 mm 1 m/s 737 mmHg 53%
    07:00 +27°C° 0 mm 1 m/s 737 mmHg 48%
    08:00 +29°C° 0 mm 1 m/s 738 mmHg 43%
    09:00 +31°C° 0 mm 1 m/s 738 mmHg 38%
    10:00 +33°C° 0 mm 1 m/s 738 mmHg 33%
    11:00 +35°C° 0 mm 2 m/s 738 mmHg 32%
    12:00 +36°C° 0 mm 2 m/s 738 mmHg 30%
    13:00 +37°C° 0 mm 3 m/s 737 mmHg 28%
    14:00 +36°C° 0 mm 3 m/s 737 mmHg 30%
    15:00 +36°C° 0 mm 3 m/s 737 mmHg 32%
    16:00 +35°C° 0 mm 3 m/s 737 mmHg 33%
    17:00 +32°C° 0 mm 2 m/s 737 mmHg 40%
    18:00 +29°C° 0 mm 2 m/s 737 mmHg 47%
    19:00 +27°C° 0 mm 1 m/s 737 mmHg 54%
    20:00 +26°C° 0 mm 1 m/s 737 mmHg 56%
    21:00 +25°C° 0 mm 1 m/s 737 mmHg 58%
    22:00 +25°C° 0 mm 1 m/s 738 mmHg 60%
    23:00 +25°C° 0 mm 1 m/s 738 mmHg 60%

    30 Iulie, Duminică

    Timp Temperatura Precipitaţii Vânt Presiune Umiditate
    00:00 +24°C° 0 mm 1 m/s 738 mmHg 60%
    01:00 +24°C° 0 mm 1 m/s 738 mmHg 60%
    02:00 +24°C° 0 mm 1 m/s 737 mmHg 60%
    03:00 +24°C° 0 mm 1 m/s 737 mmHg 60%
    04:00 +24°C° 0 mm 1 m/s 737 mmHg 60%
    05:00 +25°C° 0 mm 1 m/s 737 mmHg 55%
    06:00 +27°C° 0 mm 1 m/s 737 mmHg 51%
    07:00 +29°C° 0 mm 1 m/s 738 mmHg 46%
    08:00 +31°C° 0 mm 1 m/s 738 mmHg 41%
    09:00 +33°C° 0 mm 1 m/s 738 mmHg 36%
    10:00 +35°C° 0 mm 1 m/s 738 mmHg 31%
    11:00 +37°C° 0 mm 2 m/s 737 mmHg 30%
    12:00 +38°C° 0 mm 2 m/s 737 mmHg 28%
    13:00 +38°C° 0 mm 3 m/s 737 mmHg 27%
    14:00 +38°C° 0 mm 3 m/s 736 mmHg 30%
    15:00 +37°C° 0 mm 3 m/s 736 mmHg 32%
    16:00 +36°C° 0 mm 3 m/s 736 mmHg 34%
    17:00 +34°C° 0 mm 2 m/s 736 mmHg 39%
    18:00 +30°C° 0 mm 2 m/s 736 mmHg 45%
    19:00 +28°C° 0 mm 1 m/s 736 mmHg 51%
    20:00 +27°C° 0 mm 1 m/s 736 mmHg 53%
    21:00 +27°C° 0 mm 1 m/s 736 mmHg 55%
    22:00 +26°C° 0 mm 1 m/s 737 mmHg 57%
    23:00 +26°C° 0 mm 1 m/s 737 mmHg 58%

    31 Iulie, Luni

    Timp Temperatura Precipitaţii Vânt Presiune Umiditate
    00:00 +25°C° 0 mm 1 m/s 736 mmHg 58%
    01:00 +25°C° 0 mm 1 m/s 736 mmHg 59%
    02:00 +25°C° 0 mm 1 m/s 736 mmHg 60%
    03:00 +25°C° 0 mm 1 m/s 736 mmHg 60%
    04:00 +24°C° 0 mm 1 m/s 736 mmHg 61%
    05:00 +26°C° 0 mm 1 m/s 736 mmHg 57%
    06:00 +28°C° 0 mm 1 m/s 736 mmHg 52%
    07:00 +30°C° 0 mm 1 m/s 737 mmHg 48%
    08:00 +32°C° 0 mm 1 m/s 737 mmHg 43%
    09:00 +35°C° 0 mm 2 m/s 737 mmHg 39%
    10:00 +37°C° 0 mm 2 m/s 737 mmHg 34%
    11:00 +37°C° 0 mm 2 m/s 736 mmHg 33%
    12:00 +38°C° 0 mm 3 m/s 736 mmHg 32%
    13:00 +38°C° 0 mm 3 m/s 736 mmHg 31%
    14:00 +37°C° 0,2 mm 3 m/s 735 mmHg 33%
    15:00 +36°C° 0,2 mm 3 m/s 735 mmHg 36%
    16:00 +36°C° 0,2 mm 3 m/s 735 mmHg 38%
    17:00 +34°C° 0 mm 2 m/s 735 mmHg 43%
    18:00 +31°C° 0 mm 2 m/s 735 mmHg 48%
    19:00 +29°C° 0 mm 1 m/s 735 mmHg 53%
    20:00 +28°C° 0 mm 1 m/s 735 mmHg 54%
    21:00 +27°C° 0 mm 1 m/s 736 mmHg 55%
    22:00 +27°C° 0 mm 1 m/s 736 mmHg 57%
    23:00 +26°C° 0 mm 1 m/s 736 mmHg 57%

    1 August, Marţi

    Timp Temperatura Precipitaţii Vânt Presiune Umiditate
    00:00 +26°C° 0 mm 2 m/s 736 mmHg 57%
    01:00 +25°C° 0 mm 2 m/s 736 mmHg 57%
    02:00 +25°C° 0 mm 2 m/s 736 mmHg 57%
    03:00 +24°C° 0 mm 2 m/s 736 mmHg 58%
    04:00 +24°C° 0 mm 2 m/s 736 mmHg 58%
    05:00 +26°C° 0 mm 2 m/s 736 mmHg 54%
    06:00 +28°C° 0 mm 2 m/s 737 mmHg 51%
    07:00 +29°C° 0 mm 2 m/s 737 mmHg 47%
    08:00 +31°C° 0 mm 2 m/s 737 mmHg 42%
    09:00 +35°C° 0 mm 2 m/s 737 mmHg 36%
    10:00 +37°C° 0 mm 2 m/s 737 mmHg 30%
    11:00 +37°C° 0 mm 2 m/s 737 mmHg 27%
    12:00 +38°C° 0 mm 3 m/s 736 mmHg 25%
    13:00 +39°C° 0 mm 3 m/s 736 mmHg 23%
    14:00 +39°C° 0 mm 3 m/s 736 mmHg 23%
    15:00 +39°C° 0 mm 3 m/s 736 mmHg 23%
    16:00 +38°C° 0 mm 4 m/s 735 mmHg 24%
    17:00 +36°C° 0 mm 3 m/s 736 mmHg 30%
    18:00 +32°C° 0 mm 2 m/s 736 mmHg 36%
    19:00 +29°C° 0 mm 1 m/s 736 mmHg 43%
    20:00 +28°C° 0 mm 1 m/s 736 mmHg 44%
    21:00 +27°C° 0 mm 1 m/s 736 mmHg 45%
    22:00 +26°C° 0 mm 1 m/s 737 mmHg 46%
    23:00 +26°C° 0 mm 1 m/s 737 mmHg 45%
    Arată mai mult